Time,TemperatureF,DewpointF,PressureIn,WindDirection,WindDirectionDegrees,WindSpeedMPH,WindSpeedGustMPH,Humidity,HourlyPrecipIn,Conditions,Clouds,dailyrainin,SoftwareType,DateUTC
2013-02-21 00:03:00,33.6,13.9,30.15,WNW,292,0.0,0.0,44,0.00,,,0.00,WUHU21523XXSP,2013-02-21 05:03:00,
2013-02-21 00:08:00,33.6,13.9,30.15,NW,315,0.0,1.6,44,0.00,,,0.00,WUHU21523XXSP,2013-02-21 05:08:00,
2013-02-21 00:13:00,33.6,13.9,30.14,West,270,0.0,1.6,44,0.00,,,0.00,WUHU21523XXSP,2013-02-21 05:13:00,
2013-02-21 00:18:00,33.4,14.2,30.15,NNW,337,2.0,2.0,45,0.00,,,0.00,WUHU21523XXSP,2013-02-21 05:18:00,
2013-02-21 00:23:00,33.4,14.2,30.16,NW,315,0.0,2.0,45,0.00,,,0.00,WUHU21523XXSP,2013-02-21 05:23:00,
2013-02-21 00:28:00,33.4,14.2,30.15,SW,225,0.0,0.0,45,0.00,,,0.00,WUHU21523XXSP,2013-02-21 05:28:00,
2013-02-21 00:33:00,33.4,14.2,30.15,South,180,0.0,0.0,45,0.00,,,0.00,WUHU21523XXSP,2013-02-21 05:33:00,
2013-02-21 00:38:00,33.4,14.2,30.15,South,180,0.0,0.0,45,0.00,,,0.00,WUHU21523XXSP,2013-02-21 05:38:00,
2013-02-21 00:43:00,33.4,14.2,30.15,South,180,0.0,0.0,45,0.00,,,0.00,WUHU21523XXSP,2013-02-21 05:43:00,
2013-02-21 00:48:00,33.1,14.4,30.15,North,0,0.0,0.0,46,0.00,,,0.00,WUHU21523XXSP,2013-02-21 05:48:00,
2013-02-21 00:53:00,32.9,14.2,30.15,WNW,292,0.0,0.0,46,0.00,,,0.00,WUHU21523XXSP,2013-02-21 05:53:00,
2013-02-21 00:58:00,32.9,14.2,30.15,NNW,337,0.0,0.0,46,0.00,,,0.00,WUHU21523XXSP,2013-02-21 05:58:00,
2013-02-21 01:08:00,32.7,14.1,30.15,NW,315,1.3,1.3,46,0.00,,,0.00,WUHU21523XXSP,2013-02-21 06:08:00,
2013-02-21 01:13:00,32.7,14.1,30.15,NNW,337,0.2,1.3,46,0.00,,,0.00,WUHU21523XXSP,2013-02-21 06:13:00,
2013-02-21 01:18:00,32.5,13.9,30.15,NNW,337,0.0,0.2,46,0.00,,,0.00,WUHU21523XXSP,2013-02-21 06:18:00,
2013-02-21 01:23:00,32.5,13.9,30.15,NNW,337,0.0,0.0,46,0.00,,,0.00,WUHU21523XXSP,2013-02-21 06:23:00,
2013-02-21 01:28:00,32.4,13.7,30.15,NNE,22,0.0,0.0,46,0.00,,,0.00,WUHU21523XXSP,2013-02-21 06:28:00,
2013-02-21 01:33:00,32.4,13.7,30.15,NE,45,0.0,0.0,46,0.00,,,0.00,WUHU21523XXSP,2013-02-21 06:33:00,
2013-02-21 01:38:00,32.2,14.1,30.15,NE,45,0.0,0.0,47,0.00,,,0.00,WUHU21523XXSP,2013-02-21 06:38:00,
2013-02-21 01:43:00,31.8,13.8,30.15,NE,45,0.0,0.0,47,0.00,,,0.00,WUHU21523XXSP,2013-02-21 06:43:00,
2013-02-21 01:48:00,31.8,13.8,30.15,NNE,22,0.0,0.0,47,0.00,,,0.00,WUHU21523XXSP,2013-02-21 06:48:00,
2013-02-21 01:53:00,31.8,13.8,30.14,NNE,22,0.0,0.0,47,0.00,,,0.00,WUHU21523XXSP,2013-02-21 06:53:00,
2013-02-21 01:58:00,31.6,13.6,30.14,WNW,292,0.0,0.0,47,0.00,,,0.00,WUHU21523XXSP,2013-02-21 06:58:00,
2013-02-21 02:03:00,31.6,13.6,30.14,NNE,22,0.0,0.0,47,0.00,,,0.00,WUHU21523XXSP,2013-02-21 07:03:00,
2013-02-21 02:08:00,31.6,13.6,30.14,NNE,22,0.0,0.0,47,0.00,,,0.00,WUHU21523XXSP,2013-02-21 07:08:00,
2013-02-21 02:13:00,31.6,13.6,30.14,North,0,0.0,0.0,47,0.00,,,0.00,WUHU21523XXSP,2013-02-21 07:13:00,
2013-02-21 02:18:00,31.3,13.8,30.14,WNW,292,0.0,0.0,48,0.00,,,0.00,WUHU21523XXSP,2013-02-21 07:18:00,
2013-02-21 02:23:00,31.3,13.8,30.14,WNW,292,0.0,0.0,48,0.00,,,0.00,WUHU21523XXSP,2013-02-21 07:23:00,
2013-02-21 02:28:00,31.6,13.6,30.15,West,270,0.0,0.0,47,0.00,,,0.00,WUHU21523XXSP,2013-02-21 07:28:00,
2013-02-21 02:33:00,31.6,14.1,30.15,West,270,0.0,0.0,48,0.00,,,0.00,WUHU21523XXSP,2013-02-21 07:33:00,
2013-02-21 02:38:00,31.6,14.1,30.15,West,270,0.0,0.0,48,0.00,,,0.00,WUHU21523XXSP,2013-02-21 07:38:00,
2013-02-21 02:43:00,31.6,14.1,30.15,West,270,0.0,0.0,48,0.00,,,0.00,WUHU21523XXSP,2013-02-21 07:43:00,
2013-02-21 02:48:00,31.6,14.1,30.15,North,0,0.0,0.0,48,0.00,,,0.00,WUHU21523XXSP,2013-02-21 07:48:00,
2013-02-21 02:53:00,31.6,14.1,30.15,SSW,202,0.0,0.0,48,0.00,,,0.00,WUHU21523XXSP,2013-02-21 07:53:00,
2013-02-21 02:58:00,31.6,14.1,30.15,ENE,67,0.0,0.0,48,0.00,,,0.00,WUHU21523XXSP,2013-02-21 07:58:00,
2013-02-21 03:03:00,31.6,14.1,30.15,NNW,343,4.9,7.2,48,0.00,,,0.00,WUHU21523XXSP,2013-02-21 08:03:00,
2013-02-21 03:08:00,31.5,13.9,30.15,WNW,282,1.4,7.2,48,0.00,,,0.00,WUHU21523XXSP,2013-02-21 08:08:00,
2013-02-21 03:13:00,31.6,13.6,30.14,WNW,292,1.8,3.4,47,0.00,,,0.00,WUHU21523XXSP,2013-02-21 08:13:00,
2013-02-21 03:18:00,31.6,14.1,30.14,NW,315,3.8,3.8,48,0.00,,,0.00,WUHU21523XXSP,2013-02-21 08:18:00,
2013-02-21 03:23:00,31.5,13.6,30.14,NW,315,0.0,3.8,47,0.00,,,0.00,WUHU21523XXSP,2013-02-21 08:23:00,
2013-02-21 03:28:00,31.6,13.6,30.14,NNW,337,0.0,0.7,47,0.00,,,0.00,WUHU21523XXSP,2013-02-21 08:28:00,
2013-02-21 03:33:00,31.3,13.3,30.13,NW,315,3.6,3.6,47,0.00,,,0.00,WUHU21523XXSP,2013-02-21 08:33:00,
2013-02-21 03:38:00,31.3,13.3,30.13,NW,315,0.0,3.6,47,0.00,,,0.00,WUHU21523XXSP,2013-02-21 08:38:00,
2013-02-21 03:43:00,31.3,13.3,30.14,NNW,337,0.0,3.6,47,0.00,,,0.00,WUHU21523XXSP,2013-02-21 08:43:00,
2013-02-21 03:48:00,31.3,13.8,30.14,West,270,0.0,0.7,48,0.00,,,0.00,WUHU21523XXSP,2013-02-21 08:48:00,
2013-02-21 03:53:00,31.3,13.8,30.14,WNW,292,0.0,0.0,48,0.00,,,0.00,WUHU21523XXSP,2013-02-21 08:53:00,
2013-02-21 03:58:00,31.3,13.8,30.14,WNW,292,0.0,0.0,48,0.00,,,0.00,WUHU21523XXSP,2013-02-21 08:58:00,
2013-02-21 04:03:00,31.1,13.6,30.14,NNW,337,1.6,1.6,48,0.00,,,0.00,WUHU21523XXSP,2013-02-21 09:03:00,
2013-02-21 04:08:00,30.9,13.5,30.14,NNW,337,1.3,2.9,48,0.00,,,0.00,WUHU21523XXSP,2013-02-21 09:08:00,
2013-02-21 04:13:00,30.7,13.8,30.14,NW,315,5.6,5.6,49,0.00,,,0.00,WUHU21523XXSP,2013-02-21 09:13:00,
2013-02-21 04:18:00,30.7,13.8,30.14,NNW,328,2.5,5.6,49,0.00,,,0.00,WUHU21523XXSP,2013-02-21 09:18:00,
2013-02-21 04:23:00,30.6,13.6,30.14,NNW,337,2.0,3.1,49,0.00,,,0.00,WUHU21523XXSP,2013-02-21 09:23:00,
2013-02-21 04:28:00,30.4,13.5,30.14,NW,315,0.0,2.0,49,0.00,,,0.00,WUHU21523XXSP,2013-02-21 09:28:00,
2013-02-21 04:33:00,30.4,14.0,30.14,NW,315,0.7,2.0,50,0.00,,,0.00,WUHU21523XXSP,2013-02-21 09:33:00,
2013-02-21 04:38:00,30.2,13.8,30.14,NW,315,1.6,1.6,50,0.00,,,0.00,WUHU21523XXSP,2013-02-21 09:38:00,
2013-02-21 04:43:00,30.2,13.8,30.14,NW,315,2.7,2.7,50,0.00,,,0.00,WUHU21523XXSP,2013-02-21 09:43:00,
2013-02-21 04:48:00,30.0,13.7,30.14,NW,315,2.2,2.7,50,0.00,,,0.00,WUHU21523XXSP,2013-02-21 09:48:00,
2013-02-21 04:53:00,30.0,13.7,30.14,NW,315,0.0,2.2,50,0.00,,,0.00,WUHU21523XXSP,2013-02-21 09:53:00,
2013-02-21 05:03:00,30.0,13.7,30.15,NW,315,1.6,2.0,50,0.00,,,0.00,WUHU21523XXSP,2013-02-21 10:03:00,
2013-02-21 05:08:00,29.8,13.5,30.15,WNW,292,2.2,2.2,50,0.00,,,0.00,WUHU21523XXSP,2013-02-21 10:08:00,
2013-02-21 05:13:00,29.8,13.9,30.15,NW,315,0.0,2.2,51,0.00,,,0.00,WUHU21523XXSP,2013-02-21 10:13:00,
2013-02-21 05:18:00,29.8,13.9,30.15,NW,315,2.2,2.2,51,0.00,,,0.00,WUHU21523XXSP,2013-02-21 10:18:00,
2013-02-21 05:23:00,29.7,13.7,30.15,NW,324,2.1,2.5,51,0.00,,,0.00,WUHU21523XXSP,2013-02-21 10:23:00,
2013-02-21 05:33:00,29.5,13.6,30.15,NNW,337,1.8,2.2,51,0.00,,,0.00,WUHU21523XXSP,2013-02-21 10:33:00,
2013-02-21 05:38:00,29.3,13.4,30.15,NNW,337,0.0,1.8,51,0.00,,,0.00,WUHU21523XXSP,2013-02-21 10:38:00,
2013-02-21 05:43:00,29.3,13.4,30.15,North,0,0.0,1.1,51,0.00,,,0.00,WUHU21523XXSP,2013-02-21 10:43:00,
2013-02-21 05:48:00,29.1,13.7,30.15,NNW,337,2.9,2.9,52,0.00,,,0.00,WUHU21523XXSP,2013-02-21 10:48:00,
2013-02-21 05:53:00,29.1,13.7,30.16,West,270,5.6,5.6,52,0.00,,,0.00,WUHU21523XXSP,2013-02-21 10:53:00,
2013-02-21 05:58:00,29.1,13.7,30.15,NW,315,0.0,5.6,52,0.00,,,0.00,WUHU21523XXSP,2013-02-21 10:58:00,
2013-02-21 06:08:00,29.1,13.7,30.16,NNW,337,2.5,2.7,52,0.00,,,0.00,WUHU21523XXSP,2013-02-21 11:08:00,
2013-02-21 06:13:00,29.1,13.3,30.16,NW,315,0.0,2.7,51,0.00,,,0.00,WUHU21523XXSP,2013-02-21 11:13:00,
2013-02-21 06:18:00,29.1,13.3,30.16,NW,315,3.8,3.8,51,0.00,,,0.00,WUHU21523XXSP,2013-02-21 11:18:00,
2013-02-21 06:23:00,29.1,13.3,30.17,NNW,337,3.1,3.8,51,0.00,,,0.00,WUHU21523XXSP,2013-02-21 11:23:00,
2013-02-21 06:28:00,29.1,13.7,30.17,NNW,337,0.0,3.1,52,0.00,,,0.00,WUHU21523XXSP,2013-02-21 11:28:00,
2013-02-21 06:33:00,29.1,13.3,30.17,WNW,292,1.1,3.1,51,0.00,,,0.00,WUHU21523XXSP,2013-02-21 11:33:00,
2013-02-21 06:38:00,29.1,13.7,30.17,NNW,337,1.6,2.0,52,0.00,,,0.00,WUHU21523XXSP,2013-02-21 11:38:00,
2013-02-21 06:43:00,29.1,13.7,30.17,WNW,298,1.6,2.2,52,0.00,,,0.00,WUHU21523XXSP,2013-02-21 11:43:00,
2013-02-21 06:48:00,29.1,13.7,30.17,NW,315,0.9,2.2,52,0.00,,,0.00,WUHU21523XXSP,2013-02-21 11:48:00,
2013-02-21 06:53:00,28.9,13.5,30.18,WNW,292,0.0,0.9,52,0.00,,,0.00,WUHU21523XXSP,2013-02-21 11:53:00,
2013-02-21 06:58:00,28.9,13.5,30.18,NNW,337,5.1,5.1,52,0.00,,,0.00,WUHU21523XXSP,2013-02-21 11:58:00,
2013-02-21 07:03:00,28.9,13.5,30.17,NW,315,0.0,5.1,52,0.00,,,0.00,WUHU21523XXSP,2013-02-21 12:03:00,
2013-02-21 07:08:00,28.9,13.5,30.18,WNW,292,0.0,0.0,52,0.00,,,0.00,WUHU21523XXSP,2013-02-21 12:08:00,
2013-02-21 07:13:00,29.1,13.7,30.18,West,270,0.0,0.0,52,0.00,,,0.00,WUHU21523XXSP,2013-02-21 12:13:00,
2013-02-21 07:18:00,29.1,13.3,30.18,NW,315,0.0,0.0,51,0.00,,,0.00,WUHU21523XXSP,2013-02-21 12:18:00,
2013-02-21 07:23:00,29.1,13.3,30.19,NW,315,0.0,0.9,51,0.00,,,0.00,WUHU21523XXSP,2013-02-21 12:23:00,
2013-02-21 07:28:00,29.1,13.7,30.19,WNW,292,0.0,0.9,52,0.00,,,0.00,WUHU21523XXSP,2013-02-21 12:28:00,
2013-02-21 07:33:00,29.1,13.7,30.19,NNW,337,3.1,3.1,52,0.00,,,0.00,WUHU21523XXSP,2013-02-21 12:33:00,
2013-02-21 07:38:00,29.1,13.3,30.19,West,270,0.0,3.1,51,0.00,,,0.00,WUHU21523XXSP,2013-02-21 12:38:00,
2013-02-21 07:43:00,29.1,13.3,30.20,NNW,337,4.5,4.5,51,0.00,,,0.00,WUHU21523XXSP,2013-02-21 12:43:00,
2013-02-21 07:48:00,29.1,13.3,30.20,NNW,337,0.0,4.5,51,0.00,,,0.00,WUHU21523XXSP,2013-02-21 12:48:00,
2013-02-21 07:53:00,29.3,13.4,30.20,NW,315,0.0,0.0,51,0.00,,,0.00,WUHU21523XXSP,2013-02-21 12:53:00,
2013-02-21 07:58:00,29.3,13.4,30.20,NW,315,0.0,0.0,51,0.00,,,0.00,WUHU21523XXSP,2013-02-21 12:58:00,
2013-02-21 08:03:00,29.5,13.6,30.20,WNW,292,1.8,1.8,51,0.00,,,0.00,WUHU21523XXSP,2013-02-21 13:03:00,
2013-02-21 08:08:00,29.5,13.6,30.21,North,0,1.6,1.8,51,0.00,,,0.00,WUHU21523XXSP,2013-02-21 13:08:00,
2013-02-21 08:13:00,29.5,13.6,30.21,WNW,292,0.0,1.6,51,0.00,,,0.00,WUHU21523XXSP,2013-02-21 13:13:00,
2013-02-21 08:18:00,29.7,13.7,30.21,West,270,2.7,2.7,51,0.00,,,0.00,WUHU21523XXSP,2013-02-21 13:18:00,
2013-02-21 08:23:00,30.0,14.1,30.21,NW,315,0.0,2.7,51,0.00,,,0.00,WUHU21523XXSP,2013-02-21 13:23:00,
2013-02-21 08:28:00,30.0,14.1,30.21,NW,315,0.0,0.0,51,0.00,,,0.00,WUHU21523XXSP,2013-02-21 13:28:00,
2013-02-21 08:33:00,30.0,14.1,30.21,NW,315,0.0,2.5,51,0.00,,,0.00,WUHU21523XXSP,2013-02-21 13:33:00,
2013-02-21 08:38:00,30.2,13.8,30.21,NW,315,3.8,3.8,50,0.00,,,0.00,WUHU21523XXSP,2013-02-21 13:38:00,
2013-02-21 08:43:00,30.4,14.4,30.21,WNW,292,0.0,3.8,51,0.00,,,0.00,WUHU21523XXSP,2013-02-21 13:43:00,
2013-02-21 08:48:00,30.6,14.6,30.21,West,270,3.1,3.1,51,0.00,,,0.00,WUHU21523XXSP,2013-02-21 13:48:00,
2013-02-21 08:53:00,30.7,14.7,30.22,West,270,1.8,4.0,51,0.00,,,0.00,WUHU21523XXSP,2013-02-21 13:53:00,
2013-02-21 08:58:00,30.7,14.3,30.22,NW,315,0.9,4.0,50,0.00,,,0.00,WUHU21523XXSP,2013-02-21 13:58:00,
2013-02-21 09:03:00,30.9,14.5,30.21,WNW,292,0.0,1.8,50,0.00,,,0.00,WUHU21523XXSP,2013-02-21 14:03:00,
2013-02-21 09:08:00,31.3,14.8,30.22,NW,315,0.9,0.9,50,0.00,,,0.00,WUHU21523XXSP,2013-02-21 14:08:00,
2013-02-21 09:13:00,31.6,15.1,30.22,NW,315,2.0,2.0,50,0.00,,,0.00,WUHU21523XXSP,2013-02-21 14:13:00,
2013-02-21 09:18:00,31.8,14.8,30.22,NW,315,6.0,6.0,49,0.00,,,0.00,WUHU21523XXSP,2013-02-21 14:18:00,
2013-02-21 09:23:00,31.8,14.8,30.22,NNW,337,0.7,6.0,49,0.00,,,0.00,WUHU21523XXSP,2013-02-21 14:23:00,
2013-02-21 09:28:00,32.2,15.1,30.21,NW,315,4.3,4.3,49,0.00,,,0.00,WUHU21523XXSP,2013-02-21 14:28:00,
2013-02-21 09:33:00,32.2,15.1,30.22,West,270,1.3,4.3,49,0.00,,,0.00,WUHU21523XXSP,2013-02-21 14:33:00,
2013-02-21 09:38:00,32.5,15.4,30.21,WNW,292,0.0,1.3,49,0.00,,,0.00,WUHU21523XXSP,2013-02-21 14:38:00,
2013-02-21 09:43:00,32.5,14.9,30.21,WSW,247,0.0,0.0,48,0.00,,,0.00,WUHU21523XXSP,2013-02-21 14:43:00,
2013-02-21 09:48:00,32.9,15.2,30.21,South,180,1.1,1.1,48,0.00,,,0.00,WUHU21523XXSP,2013-02-21 14:48:00,
2013-02-21 09:53:00,33.1,14.9,30.22,NNW,337,1.6,1.8,47,0.00,,,0.00,WUHU21523XXSP,2013-02-21 14:53:00,
2013-02-21 09:58:00,33.4,15.2,30.22,NNW,337,0.0,1.8,47,0.00,,,0.00,WUHU21523XXSP,2013-02-21 14:58:00,
2013-02-21 10:03:00,33.6,15.4,30.22,NNW,337,2.0,2.9,47,0.00,,,0.00,WUHU21523XXSP,2013-02-21 15:03:00,
2013-02-21 10:08:00,33.8,15.5,30.22,NW,315,4.0,5.4,47,0.00,,,0.00,WUHU21523XXSP,2013-02-21 15:08:00,
2013-02-21 10:13:00,34.0,15.2,30.22,WNW,292,1.1,5.4,46,0.00,,,0.00,WUHU21523XXSP,2013-02-21 15:13:00,
2013-02-21 10:18:00,34.3,15.5,30.22,WNW,292,0.9,2.5,46,0.00,,,0.00,WUHU21523XXSP,2013-02-21 15:18:00,
2013-02-21 10:23:00,34.5,15.7,30.22,SW,225,2.0,4.3,46,0.00,,,0.00,WUHU21523XXSP,2013-02-21 15:23:00,
2013-02-21 10:28:00,34.7,15.9,30.22,NW,315,4.9,4.9,46,0.00,,,0.00,WUHU21523XXSP,2013-02-21 15:28:00,
2013-02-21 10:33:00,34.9,16.1,30.22,NW,315,3.3,4.9,46,0.00,,,0.00,WUHU21523XXSP,2013-02-21 15:33:00,
2013-02-21 10:38:00,35.2,15.9,30.22,West,270,0.0,4.0,45,0.00,,,0.00,WUHU21523XXSP,2013-02-21 15:38:00,
2013-02-21 10:43:00,35.4,16.6,30.22,WSW,243,2.5,3.4,46,0.00,,,0.00,WUHU21523XXSP,2013-02-21 15:43:00,
2013-02-21 10:48:00,36.0,16.6,30.21,West,265,3.0,3.8,45,0.00,,,0.00,WUHU21523XXSP,2013-02-21 15:48:00,
2013-02-21 10:53:00,36.3,16.4,30.21,NW,315,5.1,5.1,44,0.00,,,0.00,WUHU21523XXSP,2013-02-21 15:53:00,
2013-02-21 10:58:00,36.5,16.5,30.21,NNW,331,2.1,5.1,44,0.00,,,0.00,WUHU21523XXSP,2013-02-21 15:58:00,
2013-02-21 11:03:00,36.9,16.9,30.22,NNE,17,2.0,5.1,44,0.00,,,0.00,WUHU21523XXSP,2013-02-21 16:03:00,
2013-02-21 11:08:00,37.2,17.2,30.22,North,0,1.6,5.1,44,0.00,,,0.00,WUHU21523XXSP,2013-02-21 16:08:00,
2013-02-21 11:13:00,37.4,17.3,30.21,WNW,299,0.5,5.1,44,0.00,,,0.00,WUHU21523XXSP,2013-02-21 16:13:00,
2013-02-21 11:18:00,37.8,17.1,30.21,NW,306,1.0,1.6,43,0.00,,,0.00,WUHU21523XXSP,2013-02-21 16:18:00,
2013-02-21 11:23:00,37.9,16.8,30.22,NW,305,2.6,4.3,42,0.00,,,0.00,WUHU21523XXSP,2013-02-21 16:23:00,
2013-02-21 11:28:00,38.1,17.0,30.22,NW,315,3.2,4.3,42,0.00,,,0.00,WUHU21523XXSP,2013-02-21 16:28:00,
2013-02-21 11:33:00,38.5,17.3,30.22,North,349,3.8,6.0,42,0.00,,,0.00,WUHU21523XXSP,2013-02-21 16:33:00,
2013-02-21 11:38:00,38.8,17.6,30.21,SSW,202,3.6,6.0,42,0.00,,,0.00,WUHU21523XXSP,2013-02-21 16:38:00,
2013-02-21 11:43:00,39.4,17.6,30.21,West,270,1.0,4.9,41,0.00,,,0.00,WUHU21523XXSP,2013-02-21 16:43:00,
2013-02-21 11:48:00,39.7,17.9,30.21,NW,315,1.6,4.9,41,0.00,,,0.00,WUHU21523XXSP,2013-02-21 16:48:00,
2013-02-21 11:53:00,40.1,18.2,30.20,NW,315,0.0,4.7,41,0.00,,,0.00,WUHU21523XXSP,2013-02-21 16:53:00,
2013-02-21 11:58:00,40.3,17.9,30.20,NNW,339,2.9,4.7,40,0.00,,,0.00,WUHU21523XXSP,2013-02-21 16:58:00,
2013-02-21 12:03:00,40.8,18.3,30.20,WNW,298,2.2,4.3,40,0.00,,,0.00,WUHU21523XXSP,2013-02-21 17:03:00,
2013-02-21 12:08:00,41.0,18.5,30.20,West,270,5.8,5.8,40,0.00,,,0.00,WUHU21523XXSP,2013-02-21 17:08:00,
2013-02-21 12:13:00,41.2,18.7,30.20,NNW,328,2.5,5.8,40,0.00,,,0.00,WUHU21523XXSP,2013-02-21 17:13:00,
2013-02-21 12:18:00,41.5,18.3,30.20,West,270,0.0,7.8,39,0.00,,,0.00,WUHU21523XXSP,2013-02-21 17:18:00,
2013-02-21 12:23:00,41.7,18.5,30.19,NW,326,4.6,7.8,39,0.00,,,0.00,WUHU21523XXSP,2013-02-21 17:23:00,
2013-02-21 12:28:00,41.7,17.8,30.19,NW,315,4.3,7.2,38,0.00,,,0.00,WUHU21523XXSP,2013-02-21 17:28:00,
2013-02-21 12:33:00,42.1,18.8,30.19,NNW,331,2.8,6.3,39,0.00,,,0.00,WUHU21523XXSP,2013-02-21 17:33:00,
2013-02-21 12:38:00,42.6,18.6,30.19,NW,315,1.8,4.0,38,0.00,,,0.00,WUHU21523XXSP,2013-02-21 17:38:00,
2013-02-21 12:43:00,42.6,19.3,30.19,NNW,337,3.8,4.0,39,0.00,,,0.00,WUHU21523XXSP,2013-02-21 17:43:00,
2013-02-21 12:48:00,43.2,19.1,30.19,NW,315,1.6,3.8,38,0.00,,,0.00,WUHU21523XXSP,2013-02-21 17:48:00,
2013-02-21 12:53:00,43.5,19.4,30.19,NW,326,2.6,2.7,38,0.00,,,0.00,WUHU21523XXSP,2013-02-21 17:53:00,
2013-02-21 12:58:00,43.7,19.6,30.18,NNE,22,1.8,2.7,38,0.00,,,0.00,WUHU21523XXSP,2013-02-21 17:58:00,
2013-02-21 13:03:00,44.4,20.1,30.18,WSW,247,2.5,2.7,37,0.00,,,0.00,WUHU21523XXSP,2013-02-21 18:03:00,
2013-02-21 13:08:00,44.6,19.7,30.18,WSW,247,2.5,2.7,37,0.00,,,0.00,WUHU21523XXSP,2013-02-21 18:08:00,
2013-02-21 13:13:00,45.0,20.1,30.18,NNE,18,4.2,7.8,37,0.00,,,0.00,WUHU21523XXSP,2013-02-21 18:13:00,
2013-02-21 13:18:00,45.1,20.2,30.17,ENE,67,0.0,7.8,37,0.00,,,0.00,WUHU21523XXSP,2013-02-21 18:18:00,
2013-02-21 13:23:00,45.3,20.2,30.16,NE,45,4.3,4.3,37,0.00,,,0.00,WUHU21523XXSP,2013-02-21 18:23:00,
2013-02-21 13:28:00,45.7,20.6,30.16,South,180,2.9,4.3,38,0.00,,,0.00,WUHU21523XXSP,2013-02-21 18:28:00,
2013-02-21 13:33:00,46.6,21.5,30.15,NW,315,1.4,2.9,37,0.00,,,0.00,WUHU21523XXSP,2013-02-21 18:33:00,
2013-02-21 13:38:00,46.6,20.2,30.15,NNW,337,2.9,2.9,35,0.00,,,0.00,WUHU21523XXSP,2013-02-21 18:38:00,
2013-02-21 13:43:00,46.6,20.2,30.15,NNW,337,2.9,2.9,35,0.00,,,0.00,WUHU21523XXSP,2013-02-21 18:43:00,
2013-02-21 13:48:00,46.8,19.7,30.15,North,355,2.9,4.5,34,0.00,,,0.00,WUHU21523XXSP,2013-02-21 18:48:00,
2013-02-21 13:53:00,46.6,19.5,30.14,North,354,3.2,4.9,34,0.00,,,0.00,WUHU21523XXSP,2013-02-21 18:53:00,
2013-02-21 13:58:00,46.6,20.2,30.15,NW,315,1.3,4.9,35,0.00,,,0.00,WUHU21523XXSP,2013-02-21 18:58:00,
2013-02-21 14:03:00,46.9,19.9,30.14,NE,45,2.2,2.5,34,0.00,,,0.00,WUHU21523XXSP,2013-02-21 19:03:00,
2013-02-21 14:08:00,46.9,19.9,30.14,North,0,2.0,3.1,34,0.00,,,0.00,WUHU21523XXSP,2013-02-21 19:08:00,
2013-02-21 14:13:00,47.1,20.7,30.14,NNE,14,2.6,3.8,35,0.00,,,0.00,WUHU21523XXSP,2013-02-21 19:13:00,
2013-02-21 14:18:00,47.5,21.0,30.14,West,264,0.3,3.8,35,0.00,,,0.00,WUHU21523XXSP,2013-02-21 19:18:00,
2013-02-21 14:23:00,47.8,20.7,30.14,North,11,2.0,3.1,34,0.00,,,0.00,WUHU21523XXSP,2013-02-21 19:23:00,
2013-02-21 14:28:00,48.0,20.8,30.14,NW,314,9.6,18.1,34,0.00,,,0.00,WUHU21523XXSP,2013-02-21 19:28:00,
2013-02-21 14:33:00,48.0,20.2,30.13,NNE,22,1.3,18.1,33,0.00,,,0.00,WUHU21523XXSP,2013-02-21 19:33:00,
2013-02-21 14:38:00,48.0,20.2,30.13,NE,45,4.7,4.7,33,0.00,,,0.00,WUHU21523XXSP,2013-02-21 19:38:00,
2013-02-21 14:43:00,48.0,20.2,30.13,NW,315,5.6,5.6,33,0.00,,,0.00,WUHU21523XXSP,2013-02-21 19:43:00,
2013-02-21 14:48:00,48.4,20.3,30.12,WNW,292,0.9,5.6,32,0.00,,,0.00,WUHU21523XXSP,2013-02-21 19:48:00,
2013-02-21 14:53:00,48.6,20.6,30.12,SW,215,3.4,4.0,33,0.00,,,0.00,WUHU21523XXSP,2013-02-21 19:53:00,
2013-02-21 14:58:00,49.1,21.1,30.12,NNE,22,0.2,4.0,33,0.00,,,0.00,WUHU21523XXSP,2013-02-21 19:58:00,
2013-02-21 15:03:00,49.1,20.4,30.12,NNE,22,2.9,4.3,32,0.00,,,0.00,WUHU21523XXSP,2013-02-21 20:03:00,
2013-02-21 15:08:00,49.1,21.1,30.13,NE,45,14.9,15.4,33,0.00,,,0.00,WUHU21523XXSP,2013-02-21 20:08:00,
2013-02-21 15:13:00,49.1,21.1,30.13,NE,45,0.0,15.4,33,0.00,,,0.00,WUHU21523XXSP,2013-02-21 20:13:00,
2013-02-21 15:18:00,49.3,21.2,30.13,South,180,0.0,4.0,33,0.00,,,0.00,WUHU21523XXSP,2013-02-21 20:18:00,
2013-02-21 15:23:00,49.6,21.5,30.13,South,180,1.6,4.0,33,0.00,,,0.00,WUHU21523XXSP,2013-02-21 20:23:00,
2013-02-21 15:28:00,49.8,22.3,30.14,SSW,201,5.4,10.1,34,0.00,,,0.00,WUHU21523XXSP,2013-02-21 20:28:00,
2013-02-21 15:33:00,50.2,22.7,30.15,SSW,202,1.6,10.1,34,0.00,,,0.00,WUHU21523XXSP,2013-02-21 20:33:00,
2013-02-21 15:38:00,50.2,21.3,30.15,WNW,297,1.7,2.7,32,0.00,,,0.00,WUHU21523XXSP,2013-02-21 20:38:00,
2013-02-21 15:43:00,50.2,21.3,30.14,NNE,22,16.3,16.3,32,0.00,,,0.00,WUHU21523XXSP,2013-02-21 20:43:00,
2013-02-21 15:48:00,49.8,20.3,30.14,North,351,2.2,16.3,31,0.00,,,0.00,WUHU21523XXSP,2013-02-21 20:48:00,
2013-02-21 15:53:00,49.8,21.0,30.14,NNW,336,2.3,4.3,32,0.00,,,0.00,WUHU21523XXSP,2013-02-21 20:53:00,
2013-02-21 15:58:00,49.8,20.3,30.14,NW,315,1.3,4.3,31,0.00,,,0.00,WUHU21523XXSP,2013-02-21 20:58:00,
2013-02-21 16:03:00,49.6,20.1,30.14,NW,315,2.0,2.0,31,0.00,,,0.00,WUHU21523XXSP,2013-02-21 21:03:00,
2013-02-21 16:08:00,49.6,20.1,30.13,NW,315,1.8,2.2,31,0.00,,,0.00,WUHU21523XXSP,2013-02-21 21:08:00,
2013-02-21 16:13:00,49.6,20.1,30.13,NW,315,0.0,2.2,31,0.00,,,0.00,WUHU21523XXSP,2013-02-21 21:13:00,
2013-02-21 16:18:00,49.6,20.1,30.13,ENE,67,3.1,3.6,31,0.00,,,0.00,WUHU21523XXSP,2013-02-21 21:18:00,
2013-02-21 16:23:00,49.6,20.8,30.13,ENE,67,0.0,3.6,32,0.00,,,0.00,WUHU21523XXSP,2013-02-21 21:23:00,
2013-02-21 16:28:00,49.6,20.8,30.12,ESE,112,0.0,3.1,32,0.00,,,0.00,WUHU21523XXSP,2013-02-21 21:28:00,
2013-02-21 16:33:00,49.5,20.7,30.13,NNW,337,0.0,0.0,32,0.00,,,0.00,WUHU21523XXSP,2013-02-21 21:33:00,
2013-02-21 16:38:00,49.5,20.0,30.13,West,270,2.9,2.9,31,0.00,,,0.00,WUHU21523XXSP,2013-02-21 21:38:00,
2013-02-21 16:43:00,49.3,19.9,30.14,NW,315,0.0,2.9,31,0.00,,,0.00,WUHU21523XXSP,2013-02-21 21:43:00,
2013-02-21 16:48:00,49.3,20.5,30.15,NW,315,0.0,0.0,32,0.00,,,0.00,WUHU21523XXSP,2013-02-21 21:48:00,
2013-02-21 16:53:00,49.3,19.9,30.16,NE,45,1.8,1.8,31,0.00,,,0.00,WUHU21523XXSP,2013-02-21 21:53:00,
2013-02-21 16:58:00,49.3,19.9,30.16,NNW,337,0.0,1.8,31,0.00,,,0.00,WUHU21523XXSP,2013-02-21 21:58:00,
2013-02-21 17:03:00,49.1,19.7,30.16,NW,315,0.0,0.0,31,0.00,,,0.00,WUHU21523XXSP,2013-02-21 22:03:00,
2013-02-21 17:08:00,49.1,19.7,30.16,NW,315,0.0,0.0,31,0.00,,,0.00,WUHU21523XXSP,2013-02-21 22:08:00,
2013-02-21 17:13:00,48.9,19.6,30.16,NW,315,0.0,0.0,31,0.00,,,0.00,WUHU21523XXSP,2013-02-21 22:13:00,
2013-02-21 17:18:00,48.9,20.2,30.16,NW,315,0.0,0.0,32,0.00,,,0.00,WUHU21523XXSP,2013-02-21 22:18:00,
2013-02-21 17:23:00,48.7,20.8,30.17,NW,315,0.0,0.0,33,0.00,,,0.00,WUHU21523XXSP,2013-02-21 22:23:00,
2013-02-21 17:28:00,48.7,20.8,30.17,NW,315,0.0,0.0,33,0.00,,,0.00,WUHU21523XXSP,2013-02-21 22:28:00,
2013-02-21 17:33:00,48.6,20.6,30.16,NW,315,0.0,0.0,33,0.00,,,0.00,WUHU21523XXSP,2013-02-21 22:33:00,
2013-02-21 17:38:00,48.4,20.5,30.17,North,0,0.0,0.0,33,0.00,,,0.00,WUHU21523XXSP,2013-02-21 22:38:00,
2013-02-21 17:43:00,48.0,20.8,30.17,North,0,0.0,0.0,34,0.00,,,0.00,WUHU21523XXSP,2013-02-21 22:43:00,
2013-02-21 17:48:00,47.8,20.7,30.17,North,0,0.0,0.0,34,0.00,,,0.00,WUHU21523XXSP,2013-02-21 22:48:00,
2013-02-21 17:53:00,47.7,19.8,30.18,NNE,22,0.0,0.0,33,0.00,,,0.00,WUHU21523XXSP,2013-02-21 22:53:00,
2013-02-21 17:58:00,47.5,19.7,30.17,NNE,22,0.0,0.0,33,0.00,,,0.00,WUHU21523XXSP,2013-02-21 22:58:00,
2013-02-21 18:03:00,47.1,20.0,30.18,NNE,22,0.0,0.0,34,0.00,,,0.00,WUHU21523XXSP,2013-02-21 23:03:00,
2013-02-21 18:08:00,46.9,19.9,30.18,NNE,22,0.0,0.0,34,0.00,,,0.00,WUHU21523XXSP,2013-02-21 23:08:00,
2013-02-21 18:13:00,46.8,19.7,30.19,NNE,22,0.0,0.0,34,0.00,,,0.00,WUHU21523XXSP,2013-02-21 23:13:00,
2013-02-21 18:18:00,46.6,19.5,30.19,NNE,22,0.0,0.0,34,0.00,,,0.00,WUHU21523XXSP,2013-02-21 23:18:00,
2013-02-21 18:23:00,46.2,19.2,30.19,NNE,22,0.0,0.0,34,0.00,,,0.00,WUHU21523XXSP,2013-02-21 23:23:00,
2013-02-21 18:28:00,46.0,19.0,30.19,NNE,22,2.5,2.5,34,0.00,,,0.00,WUHU21523XXSP,2013-02-21 23:28:00,
2013-02-21 18:33:00,45.9,18.9,30.19,ENE,67,0.0,2.5,34,0.00,,,0.00,WUHU21523XXSP,2013-02-21 23:33:00,
2013-02-21 18:38:00,45.7,18.7,30.19,ENE,67,0.0,1.1,34,0.00,,,0.00,WUHU21523XXSP,2013-02-21 23:38:00,
2013-02-21 18:43:00,45.5,19.2,30.19,ENE,67,0.0,0.0,35,0.00,,,0.00,WUHU21523XXSP,2013-02-21 23:43:00,
2013-02-21 18:48:00,45.1,18.9,30.19,ENE,67,0.0,0.0,35,0.00,,,0.00,WUHU21523XXSP,2013-02-21 23:48:00,
2013-02-21 18:53:00,45.1,18.9,30.19,ENE,67,0.0,0.0,35,0.00,,,0.00,WUHU21523XXSP,2013-02-21 23:53:00,
2013-02-21 18:58:00,44.8,18.6,30.19,ENE,67,0.0,0.0,35,0.00,,,0.00,WUHU21523XXSP,2013-02-21 23:58:00,
2013-02-21 19:03:00,44.8,18.6,30.19,ENE,67,0.0,0.0,35,0.00,,,0.00,WUHU21523XXSP,2013-02-22 00:03:00,
2013-02-21 19:08:00,44.4,18.2,30.20,ENE,67,0.0,0.0,35,0.00,,,0.00,WUHU21523XXSP,2013-02-22 00:08:00,
2013-02-21 19:13:00,44.4,18.9,30.19,NNE,22,0.0,0.0,36,0.00,,,0.00,WUHU21523XXSP,2013-02-22 00:13:00,
2013-02-21 19:18:00,44.4,18.9,30.19,NNW,337,1.1,1.1,36,0.00,,,0.00,WUHU21523XXSP,2013-02-22 00:18:00,
2013-02-21 19:23:00,44.4,18.9,30.19,NNW,337,0.0,1.1,36,0.00,,,0.00,WUHU21523XXSP,2013-02-22 00:23:00,
2013-02-21 19:28:00,44.2,18.8,30.19,WSW,247,0.0,0.0,36,0.00,,,0.00,WUHU21523XXSP,2013-02-22 00:28:00,
2013-02-21 19:33:00,44.1,19.3,30.20,WSW,247,0.0,0.0,37,0.00,,,0.00,WUHU21523XXSP,2013-02-22 00:33:00,
2013-02-21 19:38:00,43.9,19.1,30.20,WSW,247,0.0,0.0,37,0.00,,,0.00,WUHU21523XXSP,2013-02-22 00:38:00,
2013-02-21 19:43:00,43.9,19.1,30.20,WSW,247,0.0,0.0,37,0.00,,,0.00,WUHU21523XXSP,2013-02-22 00:43:00,
2013-02-21 19:48:00,43.7,18.9,30.20,WSW,247,0.0,0.0,37,0.00,,,0.00,WUHU21523XXSP,2013-02-22 00:48:00,
2013-02-21 19:53:00,43.5,18.8,30.21,WSW,247,0.0,0.0,37,0.00,,,0.00,WUHU21523XXSP,2013-02-22 00:53:00,
2013-02-21 19:58:00,43.5,19.4,30.21,WSW,247,0.0,0.0,38,0.00,,,0.00,WUHU21523XXSP,2013-02-22 00:58:00,
2013-02-21 20:03:00,43.5,19.4,30.21,WSW,247,0.0,0.0,38,0.00,,,0.00,WUHU21523XXSP,2013-02-22 01:03:00,
2013-02-21 20:08:00,43.3,19.3,30.20,WSW,247,0.0,0.0,38,0.00,,,0.00,WUHU21523XXSP,2013-02-22 01:08:00,
2013-02-21 20:13:00,43.3,19.3,30.21,WSW,247,0.0,0.0,38,0.00,,,0.00,WUHU21523XXSP,2013-02-22 01:13:00,
2013-02-21 20:18:00,43.2,19.8,30.21,WSW,247,0.0,0.0,39,0.00,,,0.00,WUHU21523XXSP,2013-02-22 01:18:00,
2013-02-21 20:23:00,43.0,19.6,30.21,WSW,247,0.0,0.0,39,0.00,,,0.00,WUHU21523XXSP,2013-02-22 01:23:00,
2013-02-21 20:28:00,43.0,19.6,30.21,WSW,247,0.0,0.0,39,0.00,,,0.00,WUHU21523XXSP,2013-02-22 01:28:00,
2013-02-21 20:33:00,43.0,19.6,30.21,WSW,247,0.0,0.0,39,0.00,,,0.00,WUHU21523XXSP,2013-02-22 01:33:00,
2013-02-21 20:38:00,42.6,19.3,30.21,WSW,247,0.0,0.0,39,0.00,,,0.00,WUHU21523XXSP,2013-02-22 01:38:00,
2013-02-21 20:43:00,42.6,19.3,30.21,WSW,247,0.0,0.0,40,0.00,,,0.00,WUHU21523XXSP,2013-02-22 01:43:00,
2013-02-21 20:49:00,42.6,20.0,30.21,WSW,247,0.0,0.0,40,0.00,,,0.00,WUHU21523XXSP,2013-02-22 01:49:00,
2013-02-21 20:54:00,42.6,20.0,30.20,WSW,247,0.0,0.0,40,0.00,,,0.00,WUHU21523XXSP,2013-02-22 01:54:00,
2013-02-21 20:59:00,42.6,20.0,30.20,WSW,247,0.0,0.0,40,0.00,,,0.00,WUHU21523XXSP,2013-02-22 01:59:00,
2013-02-21 21:04:00,42.4,19.8,30.21,WSW,247,0.0,0.0,40,0.00,,,0.00,WUHU21523XXSP,2013-02-22 02:04:00,
2013-02-21 21:14:00,42.4,19.8,30.21,WSW,247,0.0,0.0,40,0.00,,,0.00,WUHU21523XXSP,2013-02-22 02:14:00,
2013-02-21 21:19:00,42.4,19.8,30.22,WSW,247,0.0,0.0,40,0.00,,,0.00,WUHU21523XXSP,2013-02-22 02:19:00,
2013-02-21 21:24:00,42.4,19.8,30.21,WSW,247,0.0,0.0,40,0.00,,,0.00,WUHU21523XXSP,2013-02-22 02:24:00,
2013-02-21 21:29:00,42.1,20.0,30.22,WSW,247,0.0,0.0,41,0.00,,,0.00,WUHU21523XXSP,2013-02-22 02:29:00,
2013-02-21 21:34:00,42.1,20.0,30.22,WSW,247,0.0,0.0,41,0.00,,,0.00,WUHU21523XXSP,2013-02-22 02:34:00,
2013-02-21 21:39:00,42.1,20.5,30.22,WSW,247,0.0,0.0,42,0.00,,,0.00,WUHU21523XXSP,2013-02-22 02:39:00,
2013-02-21 21:44:00,42.1,20.5,30.22,WSW,247,0.0,0.0,42,0.00,,,0.00,WUHU21523XXSP,2013-02-22 02:44:00,
2013-02-21 21:49:00,42.1,20.5,30.22,WSW,247,0.0,0.0,42,0.00,,,0.00,WUHU21523XXSP,2013-02-22 02:49:00,
2013-02-21 21:54:00,42.1,20.5,30.22,WSW,247,0.0,0.0,42,0.00,,,0.00,WUHU21523XXSP,2013-02-22 02:54:00,
2013-02-21 21:59:00,41.9,20.4,30.22,WSW,247,0.0,0.0,42,0.00,,,0.00,WUHU21523XXSP,2013-02-22 02:59:00,
2013-02-21 22:09:00,41.9,20.9,30.22,WSW,247,0.0,0.0,43,0.00,,,0.00,WUHU21523XXSP,2013-02-22 03:09:00,
2013-02-21 22:14:00,41.9,20.9,30.22,WSW,247,0.0,0.0,43,0.00,,,0.00,WUHU21523XXSP,2013-02-22 03:14:00,
2013-02-21 22:19:00,41.7,20.7,30.22,WSW,247,0.0,0.0,43,0.00,,,0.00,WUHU21523XXSP,2013-02-22 03:19:00,
2013-02-21 22:24:00,41.7,21.3,30.23,SW,225,0.0,0.0,44,0.00,,,0.00,WUHU21523XXSP,2013-02-22 03:24:00,
2013-02-21 22:29:00,41.7,21.3,30.24,WSW,247,0.0,0.0,44,0.00,,,0.00,WUHU21523XXSP,2013-02-22 03:29:00,
2013-02-21 22:34:00,41.7,20.7,30.24,NE,45,2.9,2.9,43,0.00,,,0.00,WUHU21523XXSP,2013-02-22 03:34:00,
2013-02-21 22:39:00,41.7,20.7,30.24,WSW,247,1.6,2.9,43,0.00,,,0.00,WUHU21523XXSP,2013-02-22 03:39:00,
2013-02-21 22:44:00,41.7,20.7,30.25,NE,45,0.0,1.6,43,0.00,,,0.00,WUHU21523XXSP,2013-02-22 03:44:00,
2013-02-21 22:49:00,41.7,20.2,30.25,SW,225,0.0,0.0,42,0.00,,,0.00,WUHU21523XXSP,2013-02-22 03:49:00,
2013-02-21 22:54:00,41.5,20.0,30.25,North,0,0.0,0.0,42,0.00,,,0.00,WUHU21523XXSP,2013-02-22 03:54:00,
2013-02-21 22:59:00,41.5,20.0,30.26,NE,45,0.0,0.0,42,0.00,,,0.00,WUHU21523XXSP,2013-02-22 03:59:00,
2013-02-21 23:04:00,41.5,20.0,30.26,ENE,67,1.1,1.1,42,0.00,,,0.00,WUHU21523XXSP,2013-02-22 04:04:00,
2013-02-21 23:09:00,41.5,20.0,30.26,NE,45,0.0,1.1,42,0.00,,,0.00,WUHU21523XXSP,2013-02-22 04:09:00,
2013-02-21 23:14:00,41.4,20.4,30.26,ESE,112,0.0,4.0,43,0.00,,,0.00,WUHU21523XXSP,2013-02-22 04:14:00,
2013-02-21 23:19:00,41.4,20.4,30.27,NE,45,0.0,4.0,43,0.00,,,0.00,WUHU21523XXSP,2013-02-22 04:19:00,
2013-02-21 23:24:00,41.2,20.2,30.27,ENE,67,0.0,0.0,43,0.00,,,0.00,WUHU21523XXSP,2013-02-22 04:24:00,
2013-02-21 23:29:00,41.2,20.2,30.27,NE,45,0.0,0.0,43,0.00,,,0.00,WUHU21523XXSP,2013-02-22 04:29:00,
2013-02-21 23:34:00,41.2,20.2,30.27,NE,45,0.0,0.0,43,0.00,,,0.00,WUHU21523XXSP,2013-02-22 04:34:00,
2013-02-21 23:39:00,41.0,20.1,30.27,ENE,67,1.1,1.1,43,0.00,,,0.00,WUHU21523XXSP,2013-02-22 04:39:00,
2013-02-21 23:44:00,40.8,19.9,30.27,SW,225,0.0,1.1,43,0.00,,,0.00,WUHU21523XXSP,2013-02-22 04:44:00,
2013-02-21 23:49:00,40.8,19.9,30.28,NNW,337,0.0,0.0,43,0.00,,,0.00,WUHU21523XXSP,2013-02-22 04:49:00,
2013-02-21 23:54:00,40.8,19.9,30.28,NE,45,0.0,0.0,43,0.00,,,0.00,WUHU21523XXSP,2013-02-22 04:54:00,
2013-02-21 23:59:00,40.8,19.9,30.28,South,180,0.0,3.8,43,0.00,,,0.00,WUHU21523XXSP,2013-02-22 04:59:00,